Date String (YYYY-MM-DD hh:mm:ss) UTC,Instrument flags,absolute air pressure of the measurement (hPa),sample flow rate (lpm),inlet stack bypass flow (lpm),air temperature of the measurement (°C),ambient temperature measured by the external sensor (°C),aerosol sample conditioner tube jacket temperature (°C),OPC LED temperature (°C),internal box temperature (°C),relative humidity of the measurement (%),span deviation,mass concentration of particles derived from Lorenz-Mie calculation of OPC scattering (μg/m³),mass concentration of particles derived from Lorenz-Mie calculation of OPC scattering (μg/m³),mass concentration of particles derived from Lorenz-Mie calculation of OPC scattering (μg/m³)
DateTimeUTC,F1_M11,P_M11,Q1_M11,Q2_M11,T1_M11,T2_M11,T3_M11,T4_M11,T5_M11,U1_M11,ZSPAN_M11,X0_M11,X2_M11,X1_M11
2023-12-08 23:00:00,SystemResetWarning,0822.0,5.00,000.00,022.4,021.4,000.0,030.7,023.8,13.5,0000.0,0005.38,0001.55,0001.08
2023-12-08 23:01:00,SystemResetWarning,0822.0,5.00,000.00,022.4,021.4,000.0,030.7,023.8,13.4,0000.0,0006.57,0001.51,0001.05
2023-12-08 23:02:00,SystemResetWarning,0821.9,5.01,000.00,022.4,021.4,000.0,030.7,023.8,13.4,0000.0,0006.70,0001.47,0001.03
2023-12-08 23:03:00,SystemResetWarning,0821.9,5.01,000.00,022.4,021.4,000.0,030.7,023.7,13.4,0000.0,0006.89,0001.43,0001.00
2023-12-08 23:04:00,SystemResetWarning,0821.9,5.00,000.00,022.4,021.4,000.0,030.7,023.7,13.4,0000.0,0007.30,0001.39,0000.98
2023-12-08 23:05:00,SystemResetWarning,0821.9,5.00,000.00,022.4,021.4,000.0,030.7,023.8,13.3,0000.0,0006.63,0001.38,0000.95
2023-12-08 23:06:00,SystemResetWarning,0822.0,5.01,000.00,022.4,021.4,000.0,030.7,023.8,13.3,0000.0,0006.45,0001.32,0000.93
2023-12-08 23:07:00,SystemResetWarning,0822.0,4.99,000.00,022.4,021.4,000.0,030.7,023.7,13.4,0000.0,0007.11,0001.36,0000.93
2023-12-08 23:08:00,SystemResetWarning,0822.0,5.00,000.00,022.4,021.4,000.0,030.7,023.7,13.3,0000.0,0006.48,0001.36,0000.92
2023-12-08 23:09:00,SystemResetWarning,0822.0,5.00,000.00,022.4,021.4,000.0,030.7,023.7,13.4,0000.0,0006.27,0001.38,0000.92
2023-12-08 23:10:00,SystemResetWarning,0822.0,5.01,000.00,022.4,021.4,000.0,030.7,023.7,13.4,0000.0,0006.26,0001.36,0000.92
2023-12-08 23:11:00,SystemResetWarning,0822.0,5.00,000.00,022.4,021.4,000.0,030.7,023.6,13.4,0000.0,0006.39,0001.38,0000.94
2023-12-08 23:12:00,SystemResetWarning,0822.0,4.98,000.00,022.4,021.4,000.0,030.7,023.6,13.5,0000.0,0005.37,0001.41,0000.97
2023-12-08 23:13:00,SystemResetWarning,0822.1,4.99,000.00,022.4,021.4,000.0,030.7,023.6,13.5,0000.0,0005.17,0001.54,0001.02
2023-12-08 23:14:00,SystemResetWarning,0822.1,5.01,000.00,022.3,021.3,000.0,030.7,023.6,13.6,0000.0,0005.61,0001.64,0001.07
2023-12-08 23:15:00,SystemResetWarning,0822.2,5.01,000.00,022.3,021.3,000.0,030.7,023.6,13.7,0000.0,0004.89,0001.72,0001.13
2023-12-08 23:16:00,SystemResetWarning,0822.1,5.00,000.00,022.3,021.3,000.0,030.6,023.5,13.7,0000.0,0004.97,0001.83,0001.20
2023-12-08 23:17:00,SystemResetWarning,0822.1,4.99,000.00,022.3,021.3,000.0,030.6,023.5,13.8,0000.0,0005.28,0001.97,0001.27
2023-12-08 23:18:00,SystemResetWarning,0822.2,4.99,000.00,022.3,021.2,000.0,030.6,023.5,13.8,0000.0,0005.01,0002.06,0001.33
2023-12-08 23:19:00,SystemResetWarning,0822.2,5.01,000.00,022.3,021.2,000.0,030.6,023.5,13.9,0000.0,0006.28,0002.17,0001.41
2023-12-08 23:20:00,SystemResetWarning,0822.2,5.01,000.00,022.2,021.2,000.0,030.6,023.5,14.0,0000.0,0007.15,0002.25,0001.49
2023-12-08 23:21:00,SystemResetWarning,0822.2,5.00,000.00,022.2,021.2,000.0,030.6,023.5,14.0,0000.0,0008.12,0002.42,0001.56
2023-12-08 23:22:00,SystemResetWarning,0822.2,4.99,000.00,022.2,021.1,000.0,030.6,023.5,14.1,0000.0,0008.98,0002.56,0001.62
2023-12-08 23:23:00,SystemResetWarning,0822.2,5.00,000.00,022.2,021.1,000.0,030.6,023.5,14.1,0000.0,0009.32,0002.69,0001.69
2023-12-08 23:24:00,SystemResetWarning,0822.2,5.00,000.00,022.2,021.1,000.0,030.6,023.4,14.2,0000.0,0009.62,0002.84,0001.74
2023-12-08 23:25:00,SystemResetWarning,0822.2,5.00,000.00,022.2,021.1,000.0,030.6,023.4,14.4,0000.0,0009.60,0002.95,0001.80
2023-12-08 23:26:00,SystemResetWarning,0822.3,5.01,000.00,022.2,021.0,000.0,030.6,023.4,14.5,0000.0,0010.56,0003.09,0001.85
2023-12-08 23:27:00,SystemResetWarning,0822.3,5.00,000.00,022.2,021.0,000.0,030.6,023.4,14.6,0000.0,0010.81,0003.11,0001.88
2023-12-08 23:28:00,SystemResetWarning,0822.4,5.00,000.00,022.1,021.0,000.0,030.6,023.4,14.7,0000.0,0011.04,0003.16,0001.91
2023-12-08 23:29:00,SystemResetWarning,0822.4,5.00,000.00,022.1,021.0,000.0,030.5,023.3,14.8,0000.0,0011.12,0003.23,0001.96
2023-12-08 23:30:00,SystemResetWarning,0822.4,4.98,000.00,022.1,020.9,000.0,030.5,023.3,14.9,0000.0,0010.80,0003.28,0001.98
2023-12-08 23:31:00,SystemResetWarning,0822.4,5.00,000.00,022.1,020.9,000.0,030.5,023.3,15.0,0000.0,0011.29,0003.32,0002.00
2023-12-08 23:32:00,SystemResetWarning,0822.4,5.01,000.00,022.1,020.9,000.0,030.5,023.3,15.1,0000.0,0010.94,0003.30,0002.03
2023-12-08 23:33:00,SystemResetWarning,0822.4,5.01,000.00,022.0,020.9,000.0,030.5,023.2,15.2,0000.0,0010.69,0003.30,0002.05
2023-12-08 23:34:00,SystemResetWarning,0822.4,4.99,000.00,022.0,020.9,000.0,030.5,023.2,15.2,0000.0,0011.26,0003.32,0002.07
2023-12-08 23:35:00,SystemResetWarning,0822.4,4.99,000.00,022.0,020.9,000.0,030.5,023.2,15.2,0000.0,0011.39,0003.26,0002.05
2023-12-08 23:36:00,SystemResetWarning,0822.4,5.00,000.00,022.0,020.9,000.0,030.5,023.2,15.2,0000.0,0011.50,0003.24,0002.05
2023-12-08 23:37:00,SystemResetWarning,0822.4,5.00,000.00,022.0,020.9,000.0,030.4,023.2,15.2,0000.0,0010.47,0003.22,0002.05
2023-12-08 23:38:00,SystemResetWarning,0822.4,5.00,000.00,022.0,020.9,000.0,030.4,023.2,15.3,0000.0,0010.46,0003.23,0002.05
2023-12-08 23:39:00,SystemResetWarning,0822.4,5.00,000.00,022.0,020.8,000.0,030.4,023.2,15.1,0000.0,0010.63,0003.18,0002.04
2023-12-08 23:40:00,SystemResetWarning,0822.4,5.01,000.00,022.0,020.8,000.0,030.4,023.2,15.1,0000.0,0010.76,0003.17,0002.06
2023-12-08 23:41:00,SystemResetWarning,0822.4,5.01,000.00,022.0,020.8,000.0,030.4,023.2,15.1,0000.0,0010.66,0003.15,0002.08
2023-12-08 23:42:00,SystemResetWarning,0822.4,4.99,000.00,021.9,020.8,000.0,030.4,023.2,15.1,0000.0,0009.82,0003.13,0002.09
2023-12-08 23:43:00,SystemResetWarning,0822.4,4.98,000.00,021.9,020.8,000.0,030.4,023.2,15.2,0000.0,0009.58,0003.15,0002.09
2023-12-08 23:44:00,SystemResetWarning,0822.6,5.01,000.00,021.9,020.8,000.0,030.4,023.1,15.2,0000.0,0009.76,0003.16,0002.10
2023-12-08 23:45:00,SystemResetWarning,0822.8,5.01,000.00,021.9,020.9,000.0,030.4,023.1,15.1,0000.0,0009.51,0003.17,0002.10
2023-12-08 23:46:00,SystemResetWarning,0822.9,5.00,000.00,021.9,020.9,000.0,030.4,023.1,15.1,0000.0,0009.32,0003.15,0002.11
2023-12-08 23:47:00,SystemResetWarning,0823.1,5.00,000.00,021.9,020.9,000.0,030.4,023.1,15.1,0000.0,0008.92,0003.12,0002.11
2023-12-08 23:48:00,SystemResetWarning,0822.9,5.00,000.00,021.9,020.8,000.0,030.3,023.1,15.2,0000.0,0009.35,0003.10,0002.11
2023-12-08 23:49:00,SystemResetWarning,0822.9,4.99,000.00,021.8,020.8,000.0,030.3,023.1,15.2,0000.0,0009.29,0003.05,0002.10
2023-12-08 23:50:00,SystemResetWarning,0822.6,5.00,000.00,021.8,020.8,000.0,030.3,023.1,15.2,0000.0,0008.98,0003.09,0002.11
2023-12-08 23:51:00,SystemResetWarning,0822.6,5.01,000.00,021.8,020.8,000.0,030.3,023.1,15.2,0000.0,0008.88,0003.07,0002.09
2023-12-08 23:52:00,SystemResetWarning,0822.6,5.01,000.00,021.8,020.8,000.0,030.3,023.1,15.2,0000.0,0009.27,0003.01,0002.07
2023-12-08 23:53:00,SystemResetWarning,0822.6,5.00,000.00,021.8,020.8,000.0,030.3,023.1,15.2,0000.0,0009.90,0003.03,0002.04
2023-12-08 23:54:00,SystemResetWarning,0822.7,5.00,000.00,021.8,020.8,000.0,030.3,023.1,15.3,0000.0,0010.08,0003.02,0002.04
2023-12-08 23:55:00,SystemResetWarning,0822.7,5.00,000.00,021.8,020.8,000.0,030.3,023.1,15.3,0000.0,0010.02,0003.03,0002.04
2023-12-08 23:56:00,SystemResetWarning,0822.6,5.01,000.00,021.8,020.8,000.0,030.3,023.1,15.2,0000.0,0009.56,0002.97,0002.02
2023-12-08 23:57:00,SystemResetWarning,0822.8,5.00,000.00,021.8,020.8,000.0,030.2,023.1,15.3,0000.0,0009.58,0002.98,0002.01
2023-12-08 23:58:00,SystemResetWarning,0822.7,5.00,000.00,021.8,020.8,000.0,030.2,023.1,15.4,0000.0,0009.86,0003.03,0002.02
2023-12-08 23:59:00,SystemResetWarning,0822.8,4.98,000.00,021.8,020.8,000.0,030.2,023.1,15.3,0000.0,0009.42,0003.00,0002.00
